{"data":{"norad_id":59610,"intl_designator":"2024-080K","name":"STARLINK-31729","alt_names":[],"object_type":"PAYLOAD","status":"ACTIVE","operator":null,"country":"US","launch_date":"2024-04-28","launch_site_code":"AFETR","launch_vehicle":null,"mission":null,"orbit_class":"UNKNOWN","rcs_meters":null,"size_class":null,"mass_kg":null,"dimensions":null,"purposes":["comms"],"wikipedia_slug":null,"has_3d_model":false,"image_url":null,"decayed_at":null,"tle_current":{"epoch":"2026-05-24T21:20:57.249600Z","epoch_age_seconds":78512,"freshness":"FRESH","line1":"1 59610U 24080K   26144.88955150 -.00002234  00000+0 -71695-4 0  9997","line2":"2 59610  43.0049 324.3554 0001746 273.0464  87.0188 15.27561632116225","mean_motion":15.27561632,"eccentricity":0.0001746,"inclination_deg":43.0049,"raan_deg":324.3554,"arg_perigee_deg":273.0464,"mean_anomaly_deg":87.0188,"bstar":-7.1695e-5,"rev_number":11622,"period_min":94.267882213999,"perigee_km":481.90612429509,"apogee_km":484.30206968616,"semimajor_km":6861.2410969906,"source":"CELESTRAK","updated_at":"2026-05-25T13:38:19.009495Z"}}}